TimeCDT,TemperatureF,Dew PointF,Humidity,Sea Level PressureIn,VisibilityMPH,Wind Direction,Wind SpeedMPH,Gust SpeedMPH,PrecipitationIn,Events,Conditions,WindDirDegrees,DateUTC
12:53 AM,34.0,18.0,52,29.94,10.0,NW,11.5,18.4,N/A,,Scattered Clouds,310,2013-04-20 05:53:00
1:53 AM,34.0,18.0,52,29.96,10.0,WNW,12.7,19.6,N/A,,Clear,300,2013-04-20 06:53:00
2:53 AM,33.1,17.1,52,30.00,10.0,NW,10.4,19.6,N/A,,Clear,310,2013-04-20 07:53:00
3:53 AM,32.0,17.1,54,30.03,10.0,NW,10.4,-,N/A,,Clear,320,2013-04-20 08:53:00
4:53 AM,30.9,17.1,57,30.06,10.0,WNW,4.6,-,N/A,,Clear,300,2013-04-20 09:53:00
5:53 AM,30.0,16.0,56,30.10,10.0,NW,4.6,-,N/A,,Clear,320,2013-04-20 10:53:00
6:53 AM,30.9,18.0,59,30.13,10.0,West,4.6,-,N/A,,Clear,270,2013-04-20 11:53:00
7:53 AM,33.1,19.0,56,30.17,10.0,WNW,9.2,-,N/A,,Clear,300,2013-04-20 12:53:00
8:53 AM,35.1,18.0,50,30.20,10.0,WNW,12.7,-,N/A,,Clear,300,2013-04-20 13:53:00
9:53 AM,37.0,19.0,48,30.22,10.0,West,12.7,-,N/A,,Partly Cloudy,280,2013-04-20 14:53:00
10:53 AM,39.0,14.0,36,30.25,10.0,NW,11.5,18.4,N/A,,Clear,310,2013-04-20 15:53:00
11:53 AM,41.0,16.0,36,30.27,10.0,WNW,13.8,19.6,N/A,,Clear,300,2013-04-20 16:53:00
12:53 PM,42.1,16.0,35,30.29,10.0,NW,8.1,-,N/A,,Scattered Clouds,320,2013-04-20 17:53:00
1:53 PM,43.0,17.1,35,30.30,10.0,Variable,5.8,-,N/A,,Mostly Cloudy,0,2013-04-20 18:53:00
2:53 PM,39.9,19.9,45,30.32,10.0,East,8.1,-,N/A,,Overcast,90,2013-04-20 19:53:00
3:53 PM,37.9,21.0,51,30.34,10.0,ESE,10.4,-,N/A,,Overcast,110,2013-04-20 20:53:00
4:53 PM,39.0,21.0,49,30.35,10.0,East,10.4,-,N/A,,Overcast,100,2013-04-20 21:53:00
5:53 PM,37.9,21.0,51,30.37,10.0,SE,9.2,-,N/A,,Partly Cloudy,130,2013-04-20 22:53:00
6:53 PM,37.9,21.9,53,30.38,10.0,SE,11.5,-,N/A,,Clear,140,2013-04-20 23:53:00
7:53 PM,37.0,21.9,54,30.40,10.0,SE,9.2,-,N/A,,Clear,140,2013-04-21 00:53:00
8:53 PM,36.0,23.0,59,30.43,10.0,SSE,9.2,-,N/A,,Clear,150,2013-04-21 01:53:00
9:53 PM,36.0,23.0,59,30.45,10.0,SSE,5.8,-,N/A,,Clear,150,2013-04-21 02:53:00
10:53 PM,36.0,23.0,59,30.46,10.0,SSE,6.9,-,N/A,,Clear,160,2013-04-21 03:53:00
11:53 PM,36.0,24.1,62,30.47,10.0,SE,9.2,-,N/A,,Clear,140,2013-04-21 04:53:00